SCP
-0 -0 -0 0 -0 0 -0 -0 -0 -0 0 0 0 -0 -0 -0 -0 0 0 0 0 0 -0 0 0 0 0 0 0 0 -0 0 0 0 0 0 0 0 0 0 0 0 0 0 0
-0 -0 -0 0 0 -0 -0 -0 -0 0 -0 -0 0 0 -0 -0 0 0 0 0 0 0 0 0 0 -0 0 0 0 0 0 0 0 0 0 0 0 0 0 0 0 0 0 0 0
-0 -0 -0 -0 0 0 0 -0 -0 0 -0 -0 0 0 0 -0 -0 0 0 0 0 0 0 0 0 -0 -0 0 0 0 0 0 0 0 0 0 0 0 0 0 0 0 0 0 0
-0 -0 -0 0 -0 0 -0 -0 -0 -0 -0 -0 -0 -0 0 -0 0 0 0 0 0 0 0 0 0 0 -0 -0 0 0 0 0 0 0 0 0 0 0 0 0 0 0 0 0 0
-0 -0 0 -0 -0 0 -0 -0 -0 -0 -0 -0 -0 -0 0 0 0 0 0 0 0 0 0 0 0 0 -0 -0 -0 -0 0 0 -0 0 0 0 0 0 0 0 0 0 0 0 0
-0 -0 -0 -0 -0 -0 -0 -0 -0 -0 -0 -0 -0 -0 0 0 0 0 0 0 0 0 0 -0 0 0 0 0 -0 0 0 0 -0 0 0 0 0 0 0 0 0 0 0 0 0
-0 -0 -0 -0 0 0 0 -0 -0 -0 -0 -0 -0 0 0 -0 0 0 0 0 0 0 0 -0 0 -0 -0 -0 0 0 0 -0 -0 0 0 -0 0 0 -0 0 0 -0 0 0 0
0 -0 -0 -0 -0 0 0 0 -0 -0 -0 0 0 0 -0 0 0 -0 -0 0 0 0 0 0 0 0 -0 -0 0 0 0 0 0 0 0 -0 0 -0 -0 -0 -0 -0 -0 -0 -0
0 0 -0 -0 -0 0 0 -0 0 0 -0 -0 0 0 -0 0 0 0 0 0 0 0 0 0 0 0 0 0 -0 -0 -0 0 -0 0 0 0 0 -0 -0 -0 -0 -0 -0 -0 -0
0 -0 -0 -0 -0 0 0 0 -0 0 0 0 0 0 0 0 0 0 0 0 0 0 0 0 0 0 0 -0 -0 -0 -0 -0 -0 -0 -0 -0 0 0 0 -0 -0 -0 -0 -0 -0
0 0 -0 -0 -0 0 0 0 0 0 0 0 0 0 0 -0 0 -0 0 0 0 0 0 0 0 0 0 0 0 0 0 -0 -0 -0 -0 -0 -0 0 -0 -0 -0 -0 -0 -0 -0
0 0 0 -0 -0 -0 -0 0 0 0 0 0 0 0 0 0 0 0 0 0 0 0 0 0 0 0 0 0 0 0 0 -0 -0 -0 -0 0 0 0 0 0 -0 -0 -0 -0 -0
0 0 0 0 0 0 0 0 0 0 0 0 0 0 0 0 0 -0 -0 0 0 0 0 0 0 0 0 0 0 0 0 -0 -0 -0 -0 -0 -0 0 -0 -0 -0 -0 -0 -0 -0
0 0 0 0 0 0 0 0 0 0 0 0 0 0 0 0 0 0 0 0 0 0 0 0 -0 0 0 0 0 0 0 0 0 -0 -0 -0 -0 -0 -0 0 0 -0 0 0 0
0 0 0 0 0 0 0 0 0 0 0 0 0 0 0 0 0 0 0 0 0 0 0 0 0 0 0 0 0 0 0 0 0 0 -0 0 -0 0 -0 0 0 -0 0 0 0
0 0 0 0 0 0 0 0 0 0 0 0 0 0 0 0 0 0 0 0 0 0 0 0 0 0 -0 0 0 0 0 0 0 0 0 0 0 0 0 0 0 0 0 0 0
0 0 0 0 0 0 0 0 0 0 0 0 0 0 0 0 0 0 0 0 0 0 0 0 0 0 0 0 0 0 0 0 0 0 0 0 0 0 0 0 0 0 0 0 0
0 0 0 0 0 0 0 0 0 0 0 0 0 0 0 0 0 0 0 0 0 0 0 0 0 0 0 0 0 0 0 0 0 0 0 0 0 0 0 0 0 0 0 0 0
0 0 0 0 0 0 0 0 0 0 0 0 0 0 0 0 0 0 0 0 0 0 0 0 0 0 0 0 0 0 0 0 0 0 0 0 0 0 0 0 0 0 0 0 0
0 0 0 0 0 0 0 0 0 0 0 0 0 0 0 0 0 0 0 0 0 0 0 0 0 0 0 0 0 0 0 0 0 0 0 0 0 0 0 -0 0 0 0 0 0
0 0 0 0 0 0 0 0 0 0 0 0 0 0 0 0 0 0 0 0 0 0 0 0 0 0 0 0 0 0 0 0 0 0 0 0 0 0 0 0 0 0 0 0 0
0 0 0 0 0 0 0 0 0 0 0 0 0 0 0 0 0 0 0 0 0 0 0 0 0 0 0 0 0 0 0 0 0 0 0 0 0 0 0 0 0 0 0 0 0
0 0 0 0 0 0 0 0 0 0 0 0 0 0 0 0 0 0 0 0 0 0 0 0 0 0 0 0 0 0 0 0 0 0 0 0 0 0 0 0 0 0 0 0 0
0 0 0 0 0 0 0 0 0 0 0 0 0 0 0 0 0 0 0 0 0 0 0 0 0 0 0 0 0 0 0 0 0 0 0 0 0 0 0 0 0 0 0 0 0
0 0 0 0 0 0 0 0 0 0 0 0 0 0 0 0 0 0 0 0 0 0 0 0 0 0 0 0 0 0 0 0 0 0 0 0 0 0 0 0 0 0 0 0 0
0 0 0 0 0 0 0 0 0 0 0 0 0 0 0 0 0 0 0 0 0 0 0 0 0 0 0 0 0 0 0 0 0 0 0 0 0 0 0 0 0 0 0 0 0
0 0 0 0 0 0 0 0 0 0 0 0 0 0 0 0 0 0 0 0 0 0 0 0 0 0 0 0 0 0 0 0 0 0 0 0 0 0 0 0 0 0 0 0 0
Wind_Speed_500mb
36 41 40 39 36 36 37 32 23 16 28 26 4 9 19 31 45 60 77 48 48 51 27 25 15 15 12 26 20 8 9 9 8 9 10 7 8 30 36 55 70 42 47 27 25
25 27 29 29 28 32 36 40 30 19 22 33 20 15 18 17 27 70 54 31 40 47 31 25 35 23 25 22 21 20 10 14 17 33 28 45 36 25 24 44 45 50 41 39 39
19 20 20 21 25 28 33 39 38 23 19 25 43 24 7 11 9 52 50 38 40 44 34 5 6 32 45 33 29 17 12 19 33 53 49 51 70 21 15 21 33 34 39 39 47
12 16 16 15 19 19 25 26 39 39 32 18 17 39 27 3 8 45 46 36 47 34 26 33 6 20 16 22 29 20 34 18 20 25 33 40 39 53 45 20 29 39 45 51 57
9 10 13 16 19 19 20 29 24 26 37 48 31 25 37 39 28 42 48 41 45 36 38 32 54 44 27 40 67 41 41 59 70 73 62 70 55 36 41 43 42 48 54 56 58
8 6 10 15 20 16 14 14 21 32 43 39 41 43 35 27 37 39 52 41 48 44 53 58 60 59 38 29 26 38 48 35 40 39 36 46 37 13 22 34 41 46 41 43 46
6 5 7 11 17 15 11 13 19 11 16 23 40 30 67 34 34 34 41 45 54 58 64 41 23 37 40 48 52 54 32 26 22 22 16 27 29 14 19 24 26 27 36 39 45
5 8 6 7 12 11 14 15 15 21 28 17 21 33 24 30 30 21 30 41 42 49 50 39 42 46 23 52 23 15 12 8 12 21 6 15 8 20 12 13 12 18 19 26 25
3 5 7 8 19 19 15 22 10 3 18 25 22 16 13 12 25 30 26 26 21 24 33 26 33 24 24 12 10 9 9 16 14 7 5 8 14 14 14 18 18 16 16 18 21
3 3 15 21 17 15 13 14 33 14 8 5 17 11 22 23 31 26 19 17 20 15 16 26 26 24 26 9 6 13 10 16 16 18 31 30 26 22 17 19 17 16 15 18 19
3 4 17 10 3 19 21 12 8 10 53 28 23 14 15 13 33 27 19 30 11 28 8 47 23 23 23 19 22 27 25 19 13 5 17 19 19 16 20 17 17 14 13 15 17
5 9 17 16 20 23 19 7 10 16 24 25 22 21 34 27 13 30 36 20 37 20 9 12 22 16 16 19 18 23 21 11 9 8 12 13 11 11 19 19 16 15 10 7 11
8 11 15 17 15 8 8 18 17 14 5 11 17 15 12 27 23 32 17 14 20 28 33 18 7 9 9 23 17 18 13 9 11 12 12 11 10 15 17 15 18 16 14 7 5
9 10 9 8 3 12 14 7 1 1 2 8 7 11 15 9 11 31 22 10 13 10 14 14 21 8 15 12 17 9 15 13 9 6 4 2 5 13 17 16 24 26 22 14 7
12 11 12 9 3 19 10 3 5 4 3 5 4 5 15 12 7 17 17 28 14 18 7 4 10 14 13 6 12 6 11 9 6 8 2 3 4 2 18 16 19 32 28 25 18
14 12 17 17 14 13 9 5 5 10 10 3 2 1 6 11 7 7 10 13 8 8 26 8 2 8 8 5 14 6 6 6 4 5 4 8 4 7 11 15 13 41 38 32 30
18 15 14 15 10 14 11 8 10 6 7 5 2 0 6 6 6 6 5 8 3 5 4 7 6 5 9 4 7 7 4 2 6 5 4 7 4 14 14 7 13 41 47 42 33
23 22 20 20 16 17 21 8 6 2 9 3 3 1 3 1 3 1 5 7 2 6 5 8 2 11 15 6 6 8 5 7 4 3 5 8 8 8 10 17 8 14 38 37 34
24 23 23 21 21 27 17 6 15 13 14 19 2 6 3 1 3 5 2 4 5 4 9 6 4 6 8 9 4 1 2 4 12 5 6 6 10 3 4 6 14 16 20 33 34
25 20 29 20 25 31 7 11 9 5 15 7 17 11 12 10 9 9 14 5 10 1 2 5 7 1 6 3 6 3 6 4 4 4 7 6 8 9 13 18 20 28 34 36 36
25 8 18 27 27 17 7 13 9 16 18 15 13 11 11 15 14 10 11 1 11 10 3 6 5 4 1 10 6 4 4 3 3 4 7 3 11 9 17 22 22 41 41 40 39
24 7 17 36 14 6 8 13 16 16 17 7 3 5 17 18 13 11 17 4 23 27 14 5 8 6 3 7 7 6 5 8 7 8 2 3 13 5 6 13 31 34 37 36 36
18 17 16 45 8 7 4 2 12 13 15 15 15 4 0 13 4 10 8 7 22 16 12 16 4 4 8 2 2 8 10 6 6 3 12 10 11 5 8 11 17 19 26 33 36
22 5 17 40 28 9 12 10 10 20 13 14 11 13 8 6 4 11 7 8 17 10 10 11 3 11 12 8 9 9 9 9 9 6 7 15 11 11 15 17 31 35 36 34 34
39 20 24 11 20 26 22 21 15 15 15 22 2 13 16 10 5 9 8 11 12 18 11 9 12 6 1 5 2 4 11 24 19 15 15 17 19 31 15 24 45 44 40 38 41
33 22 23 14 14 43 25 21 26 11 25 14 13 28 23 17 20 28 17 14 13 26 13 12 8 6 5 3 4 9 18 21 33 26 26 34 29 51 53 50 57 38 38 44 46
85 57 41 32 17 16 23 50 36 33 37 27 46 14 30 25 18 13 14 23 31 23 17 15 13 8 10 2 4 8 31 34 20 18 22 21 33 8 13 17 26 35 36 50 48
Wind_Direction_500mb
83 82 75 69 60 51 38 29 28 37 31 23 343 113 50 37 30 33 34 8 11 9 25 27 10 11 81 54 63 115 64 45 54 58 120 71 97 57 57 59 62 66 64 52 49
84 78 72 66 53 43 41 35 44 54 36 25 18 279 298 339 24 38 28 38 30 20 30 36 52 56 58 28 27 47 66 42 63 79 74 62 68 76 54 43 45 39 60 52 54
83 71 69 63 50 47 40 38 42 46 40 37 41 35 335 302 2 18 26 31 22 38 15 4 52 64 45 53 22 38 93 115 80 92 88 82 59 59 68 38 29 20 38 55 68
83 74 67 60 45 46 34 41 50 53 42 33 42 57 42 30 51 14 20 9 28 22 9 49 108 59 69 53 56 104 66 92 97 95 85 71 82 65 67 79 65 72 60 62 56
79 72 73 61 44 59 54 55 48 43 43 47 46 55 55 52 31 27 27 30 39 38 58 55 79 74 84 96 77 70 84 84 89 88 86 89 76 79 58 74 78 70 67 61 58
71 66 74 69 58 56 75 64 57 67 55 45 56 60 78 67 26 36 34 51 54 50 61 74 87 101 80 82 60 112 99 99 93 93 96 82 59 65 59 75 70 69 68 61 62
51 30 105 89 56 43 78 49 40 2 330 18 48 51 54 52 34 39 53 54 74 62 75 52 97 101 101 99 125 128 111 127 132 136 151 101 51 67 109 89 73 66 56 51 46
59 35 131 101 49 70 76 53 44 48 45 39 46 50 65 44 46 65 62 69 53 63 73 75 80 83 93 128 165 180 138 86 75 172 189 176 91 184 148 122 87 68 64 57 58
30 30 141 120 87 73 51 40 316 128 29 31 65 84 51 37 52 54 59 65 66 23 50 61 53 92 139 180 162 170 101 112 71 50 106 108 147 140 169 135 113 103 93 76 59
352 66 144 125 95 64 32 41 42 16 260 14 55 47 31 23 33 40 50 46 15 35 53 45 52 47 33 42 16 141 97 51 77 70 77 98 125 149 148 129 129 127 106 87 68
305 158 167 178 331 350 349 350 21 30 67 65 64 77 29 48 39 34 43 45 53 54 73 52 67 35 3 21 50 81 90 98 80 13 81 109 132 148 153 147 148 132 119 105 88
258 226 220 244 288 319 344 48 86 125 73 60 68 59 48 45 43 52 75 74 53 40 93 85 51 350 360 20 60 89 92 87 58 35 94 127 127 145 181 173 167 163 158 121 71
266 240 249 259 274 303 94 101 111 110 83 35 40 38 33 54 44 10 30 51 35 56 51 75 3 343 31 34 38 30 42 44 119 115 117 154 167 186 204 194 196 197 199 177 97
272 257 254 258 210 166 157 119 60 187 53 8 19 4 17 81 48 28 46 50 40 66 86 58 354 351 72 64 358 78 322 96 143 269 87 27 306 212 187 209 213 209 205 199 194
279 263 234 202 203 183 194 293 359 111 7 52 34 46 43 87 115 21 50 61 75 33 148 359 11 11 53 359 313 128 287 21 347 64 339 153 54 84 161 220 215 212 208 204 200
266 252 231 241 250 206 202 171 112 42 258 127 94 161 156 41 43 48 55 69 123 80 59 108 72 39 17 336 32 166 216 219 279 134 29 223 125 213 188 214 202 198 201 202 202
254 256 235 221 213 189 176 130 35 148 6 249 152 54 80 43 66 30 56 39 27 109 68 157 54 107 5 294 222 253 268 329 351 359 215 66 16 247 179 132 187 179 192 200 203
248 255 250 231 218 187 157 67 142 212 214 6 100 102 159 116 58 263 161 148 96 276 144 168 311 6 358 48 344 21 345 141 192 351 287 32 251 248 80 115 175 145 192 196 204
253 252 253 237 214 179 162 118 204 198 154 153 84 195 174 149 120 212 276 116 92 5 141 136 119 131 52 24 24 13 346 10 101 42 46 205 244 23 133 219 187 200 192 197 208
241 255 258 238 194 175 98 228 199 153 129 164 178 168 184 191 175 188 174 137 149 187 38 176 91 356 113 267 61 20 147 51 347 51 297 283 272 238 214 213 203 206 207 205 212
226 227 252 215 185 184 190 215 171 182 170 171 201 148 189 179 192 202 197 166 142 151 199 131 101 165 49 201 153 155 175 52 102 114 184 288 265 218 207 193 194 210 212 211 216
205 200 228 193 174 211 196 191 164 170 188 174 203 144 177 165 172 212 202 142 168 157 158 172 128 148 159 82 28 327 297 175 132 246 216 123 271 157 125 168 204 211 213 215 221
200 215 210 188 186 212 273 237 200 148 183 174 186 175 115 162 155 190 142 122 162 176 165 186 224 65 322 27 94 230 187 181 102 69 202 139 261 157 175 212 214 216 210 218 223
206 176 184 199 231 223 155 209 219 204 179 170 143 121 110 164 65 187 146 172 182 162 151 142 116 178 192 175 128 188 191 150 141 142 197 226 289 229 227 224 225 224 224 225 238
207 223 203 185 224 217 189 174 173 183 211 174 122 208 166 141 109 201 166 139 173 179 174 158 186 125 72 110 40 240 180 184 200 213 179 241 197 264 202 218 236 235 232 241 243
210 195 192 195 200 191 198 203 185 157 155 208 214 203 190 163 191 195 152 180 184 174 166 192 186 115 282 46 247 256 245 217 218 244 260 261 283 266 277 268 252 233 218 229 241
218 228 225 203 170 176 210 217 207 156 210 204 201 142 190 196 139 136 162 160 159 154 167 153 138 126 247 94 74 316 233 206 203 210 210 208 234 209 230 249 250 237 233 242 245
Wind_Speed_850mb
36 41 40 39 36 36 37 32 23 16 28 26 4 9 19 31 45 60 77 48 48 51 27 25 15 15 12 26 20 8 9 9 8 9 10 7 8 30 36 55 70 42 47 27 25
25 27 29 29 28 32 36 40 30 19 22 33 20 15 18 17 27 70 54 31 40 47 31 25 35 23 25 22 21 20 10 14 17 33 28 45 36 25 24 44 45 50 41 39 39
19 20 20 21 25 28 33 39 38 23 19 25 43 24 7 11 9 52 50 38 40 44 34 5 6 32 45 33 29 17 12 19 33 53 49 51 70 21 15 21 33 34 39 39 47
12 16 16 15 19 19 25 26 39 39 32 18 17 39 27 3 8 45 46 36 47 34 26 33 6 20 16 22 29 20 34 18 20 25 33 40 39 53 45 20 29 39 45 51 57
9 10 13 16 19 19 20 29 24 26 37 48 31 25 37 39 28 42 48 41 45 36 38 32 54 44 27 40 67 41 41 59 70 73 62 70 55 36 41 43 42 48 54 56 58
8 6 10 15 20 16 14 14 21 32 43 39 41 43 35 27 37 39 52 41 48 44 53 58 60 59 38 29 26 38 48 35 40 39 36 46 37 13 22 34 41 46 41 43 46
6 5 7 11 17 15 11 13 19 11 16 23 40 30 67 34 34 34 41 45 54 58 64 41 23 37 40 48 52 54 32 26 22 22 16 27 29 14 19 24 26 27 36 39 45
5 8 6 7 12 11 14 15 15 21 28 17 21 33 24 30 30 21 30 41 42 49 50 39 42 46 23 52 23 15 12 8 12 21 6 15 8 20 12 13 12 18 19 26 25
3 5 7 8 19 19 15 22 10 3 18 25 22 16 13 12 25 30 26 26 21 24 33 26 33 24 24 12 10 9 9 16 14 7 5 8 14 14 14 18 18 16 16 18 21
3 3 15 21 17 15 13 14 33 14 8 5 17 11 22 23 31 26 19 17 20 15 16 26 26 24 26 9 6 13 10 16 16 18 31 30 26 22 17 19 17 16 15 18 19
3 4 17 10 3 19 21 12 8 10 53 28 23 14 15 13 33 27 19 30 11 28 8 47 23 23 23 19 22 27 25 19 13 5 17 19 19 16 20 17 17 14 13 15 17
5 9 17 16 20 23 19 7 10 16 24 25 22 21 34 27 13 30 36 20 37 20 9 12 22 16 16 19 18 23 21 11 9 8 12 13 11 11 19 19 16 15 10 7 11
8 11 15 17 15 8 8 18 17 14 5 11 17 15 12 27 23 32 17 14 20 28 33 18 7 9 9 23 17 18 13 9 11 12 12 11 10 15 17 15 18 16 14 7 5
9 10 9 8 3 12 14 7 1 1 2 8 7 11 15 9 11 31 22 10 13 10 14 14 21 8 15 12 17 9 15 13 9 6 4 2 5 13 17 16 24 26 22 14 7
12 11 12 9 3 19 10 3 5 4 3 5 4 5 15 12 7 17 17 28 14 18 7 4 10 14 13 6 12 6 11 9 6 8 2 3 4 2 18 16 19 32 28 25 18
14 12 17 17 14 13 9 5 5 10 10 3 2 1 6 11 7 7 10 13 8 8 26 8 2 8 8 5 14 6 6 6 4 5 4 8 4 7 11 15 13 41 38 32 30
18 15 14 15 10 14 11 8 10 6 7 5 2 0 6 6 6 6 5 8 3 5 4 7 6 5 9 4 7 7 4 2 6 5 4 7 4 14 14 7 13 41 47 42 33
23 22 20 20 16 17 21 8 6 2 9 3 3 1 3 1 3 1 5 7 2 6 5 8 2 11 15 6 6 8 5 7 4 3 5 8 8 8 10 17 8 14 38 37 34
24 23 23 21 21 27 17 6 15 13 14 19 2 6 3 1 3 5 2 4 5 4 9 6 4 6 8 9 4 1 2 4 12 5 6 6 10 3 4 6 14 16 20 33 34
25 20 29 20 25 31 7 11 9 5 15 7 17 11 12 10 9 9 14 5 10 1 2 5 7 1 6 3 6 3 6 4 4 4 7 6 8 9 13 18 20 28 34 36 36
25 8 18 27 27 17 7 13 9 16 18 15 13 11 11 15 14 10 11 1 11 10 3 6 5 4 1 10 6 4 4 3 3 4 7 3 11 9 17 22 22 41 41 40 39
24 7 17 36 14 6 8 13 16 16 17 7 3 5 17 18 13 11 17 4 23 27 14 5 8 6 3 7 7 6 5 8 7 8 2 3 13 5 6 13 31 34 37 36 36
18 17 16 45 8 7 4 2 12 13 15 15 15 4 0 13 4 10 8 7 22 16 12 16 4 4 8 2 2 8 10 6 6 3 12 10 11 5 8 11 17 19 26 33 36
22 5 17 40 28 9 12 10 10 20 13 14 11 13 8 6 4 11 7 8 17 10 10 11 3 11 12 8 9 9 9 9 9 6 7 15 11 11 15 17 31 35 36 34 34
39 20 24 11 20 26 22 21 15 15 15 22 2 13 16 10 5 9 8 11 12 18 11 9 12 6 1 5 2 4 11 24 19 15 15 17 19 31 15 24 45 44 40 38 41
33 22 23 14 14 43 25 21 26 11 25 14 13 28 23 17 20 28 17 14 13 26 13 12 8 6 5 3 4 9 18 21 33 26 26 34 29 51 53 50 57 38 38 44 46
85 57 41 32 17 16 23 50 36 33 37 27 46 14 30 25 18 13 14 23 31 23 17 15 13 8 10 2 4 8 31 34 20 18 22 21 33 8 13 17 26 35 36 50 48
Wind_Direction_850mb
83 82 75 69 60 51 38 29 28 37 31 23 343 113 50 37 30 33 34 8 11 9 25 27 10 11 81 54 63 115 64 45 54 58 120 71 97 57 57 59 62 66 64 52 49
84 78 72 66 53 43 41 35 44 54 36 25 18 279 298 339 24 38 28 38 30 20 30 36 52 56 58 28 27 47 66 42 63 79 74 62 68 76 54 43 45 39 60 52 54
83 71 69 63 50 47 40 38 42 46 40 37 41 35 335 302 2 18 26 31 22 38 15 4 52 64 45 53 22 38 93 115 80 92 88 82 59 59 68 38 29 20 38 55 68
83 74 67 60 45 46 34 41 50 53 42 33 42 57 42 30 51 14 20 9 28 22 9 49 108 59 69 53 56 104 66 92 97 95 85 71 82 65 67 79 65 72 60 62 56
79 72 73 61 44 59 54 55 48 43 43 47 46 55 55 52 31 27 27 30 39 38 58 55 79 74 84 96 77 70 84 84 89 88 86 89 76 79 58 74 78 70 67 61 58
71 66 74 69 58 56 75 64 57 67 55 45 56 60 78 67 26 36 34 51 54 50 61 74 87 101 80 82 60 112 99 99 93 93 96 82 59 65 59 75 70 69 68 61 62
51 30 105 89 56 43 78 49 40 2 330 18 48 51 54 52 34 39 53 54 74 62 75 52 97 101 101 99 125 128 111 127 132 136 151 101 51 67 109 89 73 66 56 51 46
59 35 131 101 49 70 76 53 44 48 45 39 46 50 65 44 46 65 62 69 53 63 73 75 80 83 93 128 165 180 138 86 75 172 189 176 91 184 148 122 87 68 64 57 58
30 30 141 120 87 73 51 40 316 128 29 31 65 84 51 37 52 54 59 65 66 23 50 61 53 92 139 180 162 170 101 112 71 50 106 108 147 140 169 135 113 103 93 76 59
352 66 144 125 95 64 32 41 42 16 260 14 55 47 31 23 33 40 50 46 15 35 53 45 52 47 33 42 16 141 97 51 77 70 77 98 125 149 148 129 129 127 106 87 68
305 158 167 178 331 350 349 350 21 30 67 65 64 77 29 48 39 34 43 45 53 54 73 52 67 35 3 21 50 81 90 98 80 13 81 109 132 148 153 147 148 132 119 105 88
258 226 220 244 288 319 344 48 86 125 73 60 68 59 48 45 43 52 75 74 53 40 93 85 51 350 360 20 60 89 92 87 58 35 94 127 127 145 181 173 167 163 158 121 71
266 240 249 259 274 303 94 101 111 110 83 35 40 38 33 54 44 10 30 51 35 56 51 75 3 343 31 34 38 30 42 44 119 115 117 154 167 186 204 194 196 197 199 177 97
272 257 254 258 210 166 157 119 60 187 53 8 19 4 17 81 48 28 46 50 40 66 86 58 354 351 72 64 358 78 322 96 143 269 87 27 306 212 187 209 213 209 205 199 194
279 263 234 202 203 183 194 293 359 111 7 52 34 46 43 87 115 21 50 61 75 33 148 359 11 11 53 359 313 128 287 21 347 64 339 153 54 84 161 220 215 212 208 204 200
266 252 231 241 250 206 202 171 112 42 258 127 94 161 156 41 43 48 55 69 123 80 59 108 72 39 17 336 32 166 216 219 279 134 29 223 125 213 188 214 202 198 201 202 202
254 256 235 221 213 189 176 130 35 148 6 249 152 54 80 43 66 30 56 39 27 109 68 157 54 107 5 294 222 253 268 329 351 359 215 66 16 247 179 132 187 179 192 200 203
248 255 250 231 218 187 157 67 142 212 214 6 100 102 159 116 58 263 161 148 96 276 144 168 311 6 358 48 344 21 345 141 192 351 287 32 251 248 80 115 175 145 192 196 204
253 252 253 237 214 179 162 118 204 198 154 153 84 195 174 149 120 212 276 116 92 5 141 136 119 131 52 24 24 13 346 10 101 42 46 205 244 23 133 219 187 200 192 197 208
241 255 258 238 194 175 98 228 199 153 129 164 178 168 184 191 175 188 174 137 149 187 38 176 91 356 113 267 61 20 147 51 347 51 297 283 272 238 214 213 203 206 207 205 212
226 227 252 215 185 184 190 215 171 182 170 171 201 148 189 179 192 202 197 166 142 151 199 131 101 165 49 201 153 155 175 52 102 114 184 288 265 218 207 193 194 210 212 211 216
205 200 228 193 174 211 196 191 164 170 188 174 203 144 177 165 172 212 202 142 168 157 158 172 128 148 159 82 28 327 297 175 132 246 216 123 271 157 125 168 204 211 213 215 221
200 215 210 188 186 212 273 237 200 148 183 174 186 175 115 162 155 190 142 122 162 176 165 186 224 65 322 27 94 230 187 181 102 69 202 139 261 157 175 212 214 216 210 218 223
206 176 184 199 231 223 155 209 219 204 179 170 143 121 110 164 65 187 146 172 182 162 151 142 116 178 192 175 128 188 191 150 141 142 197 226 289 229 227 224 225 224 224 225 238
207 223 203 185 224 217 189 174 173 183 211 174 122 208 166 141 109 201 166 139 173 179 174 158 186 125 72 110 40 240 180 184 200 213 179 241 197 264 202 218 236 235 232 241 243
210 195 192 195 200 191 198 203 185 157 155 208 214 203 190 163 191 195 152 180 184 174 166 192 186 115 282 46 247 256 245 217 218 244 260 261 283 266 277 268 252 233 218 229 241
218 228 225 203 170 176 210 217 207 156 210 204 201 142 190 196 139 136 162 160 159 154 167 153 138 126 247 94 74 316 233 206 203 210 210 208 234 209 230 249 250 237 233 242 245